Showing default

GEESAT 2-01, 58905

Orbit data source: Space-Track

GEESAT 2-01, 58905 is a payload satellite owned by GeeSpace (CN) in LEO that was launched on Fri, 02 Feb 2024 UTC via a CHANG ZHENG 2C launch vehicle from the Xichang Space Center, China (XSC). Payload-class satellites include a variety of spacecraft equipped with specific instruments for various scientific and technological missions. These include communications satellites like Starlink; space stations such as the ISS; scientific satellites like the Hubble; Earth observation satellites from companies like Planet Labs, Umbra, and HawkEye 360; GPS; miniature CubeSats for education and research; and military/defense satellites.

Loading next visibility...
Identifier
58905, 2024-023A
Orbit
LEO
Country
Flag of CNCN / PRC
Related business
Manufacturer
Taizhou Xingkong
Mission
Operational Commercial Navigation
Bus & Motor
GEESAT1, Unknown motor
Mass
130 kg wet, 130 kg dry
Launch date (UTC)
2024-02-02 (2 years ago)
Launch vehicle
CHANG ZHENG 2C
Launch site
Xichang Space Center, China (XSC)
Object type
Payload
Rocket body
Debris
Shape & HBR
Box + 2 Pan, 1.0 m
Radar Cross Section
0.833 m², Medium (>0.1 m² and < 1m²)

Expand to show TLE details & history
Last TLE update: 19 hours ago

TLE from 19 hours ago
0 GEESAT 2-01
1 58905U 24023A   25249.29392806  .00004816  00000-0  52491-3 0  9992
2 58905  49.9923 231.7477 0008091  71.6625 288.5196 14.89456332 86739
Epoch: 2025-09-06T07:03Z
TLE epoch observation values (Epoch: 2025-09-06T07:03:15.384Z)
Latitude
0.00005°
Longitude
140.30381°
Altitude
598.389 km
Speed
7.563 km/s
True Right ascension
15h 26m 59s
True Declination
0° 00' 00"
Sunlit
Object was in daylight at epoch
Visualization orbit readout
Latitude
Unknown
Longitude
Unknown
Altitude
Unknown
Speed
Unknown
Apparent Right ascension
Unknown
Apparent Declination
Unknown
Sunlit
N/A
Visualization observer readout
Local Sidereal Time
18:11:24
Azimuth
Unknown
Elevation
Unknown
Doppler factor
Unknown
Orbital elements
Apogee altitude
606.041 km
Perigee altitude
594.748 km
Semi-major axis
6,978.532 km
Eccentricity
0.00081
Inclination
49.9923°
RAAN
231.7477°
Arg. of periapsis
71.6625°
True anomaly
288.43166°
Mean anomaly
288.5196°
Eccentric anomaly
288.47563°
Mean motion
3.72303 °/min
Orbital period
96.7 mins
BSTAR
0.00052491
Loading maneuver chart data...
Computing Atmospheric mass density...
Loading historical data...
Loading historical data...
Loading historical data...
Loading historical data...
Loading historical data...
Loading historical data...
Loading historical data...

Documentation

Showing up to 5 results
|